Race progress: MT Misery

  • Race started:
    Sunday, August 9, 2015 08:00 (GMT+9:30)
  • Race location:
    Greenacres, Australia
Race finished
Page / 3
Racers per page:
Place Bib Racer name Age Category Finish time
1 299 McCabe, Matt 32 M-30-34 2:08:02.4 --100%34.18%31.89%
2 321 Funk, Kieren 21 M-19-24 2:10:07.5 +2:05.1+1.63%98.40%33.11%30.78%
3 296 Hockings, Ben 37 M-35-39 2:11:24.0 +3:21.6+2.62%97.44%32.45%30.10%
4 291 Kromkamp, Adam 38 M-35-39 2:15:13.4 +7:11.0+5.61%94.69%30.49%28.06%
5 193 Varney, Michael 44 M-40-44 2:22:21.1 +14:18.7+11.18%89.95%26.82%24.27%
6 99 Knowler, James 40 M-40-44 2:25:55.7 +17:53.3+13.97%87.74%24.99%22.37%
7 223 Pattison, Clint 43 M-40-44 2:28:13.1 +20:10.7+15.76%86.39%23.81%21.15%
8 284 Searle, Dan 33 M-30-34 2:28:42.1 +20:39.7+16.14%86.11%23.56%20.89%
9 318 Tooth, Blake 32 M-30-34 2:28:47.3 +20:44.9+16.20%86.06%23.52%20.85%
10 157 Ton, Shaun 27 M-25-29 2:29:27.3 +21:24.9+16.73%85.67%23.17%20.49%
11 136 Kuwata, Kazu 36 F-35-39 2:29:50.8 +21:48.4+17.03%85.45%22.97%20.29%
12 281 Morfey, Shaun 34 M-30-34 2:30:03.3 +22:00.9+17.19%85.33%22.86%20.17%
13 288 Cardwell, Josh 24 M-19-24 2:30:56.8 +22:54.4+17.89%84.82%22.41%19.70%
14 300 Mills, Chris 32 M-30-34 2:31:22.8 +23:20.4+18.23%84.58%22.18%19.47%
15 44 Teale, Hayley 37 F-35-39 2:32:03.2 +24:00.8+18.75%84.21%21.84%19.11%
16 152 Sykes, Cliff 48 M-45-49 2:32:39.1 +24:36.7+19.22%83.88%21.53%18.79%
17 176 How, Travis 40 M-40-44 2:34:36.0 +26:33.6+20.74%82.82%20.53%17.76%
18 266 Carton, Tim 25 M-25-29 2:36:01.7 +27:59.3+21.86%82.06%19.79%17.00%
19 251 Flower, Cliff 49 M-45-49 2:36:37.8 +28:35.4+22.33%81.75%19.48%16.68%
20 302 Stokes, Pete 39 M-35-39 2:38:11.0 +30:08.6+23.54%80.94%18.69%15.85%
21 25 Young, Bronwyn 38 F-35-39 2:38:22.1 +30:19.7+23.69%80.85%18.59%15.75%
22 323 Kelly, Greg 50 M-50-54 2:40:12.3 +32:09.9+25.12%79.92%17.65%14.78%
23 166 Greeneklee, Stirling 57 M-55-59 2:40:20.3 +32:17.9+25.23%79.86%17.58%14.70%
24 175 McLean, Gary 52 M-50-54 2:41:08.0 +33:05.6+25.85%79.46%17.17%14.28%
25 303 Bang, Ryan 37 M-35-39 2:42:30.7 +34:28.3+26.92%78.79%16.46%13.55%
26 320 Hunt, Glen 37 M-35-39 2:42:52.5 +34:50.1+27.21%78.61%16.27%13.35%
27 254 Kniter, Craig 43 M-40-44 2:43:38.6 +35:36.2+27.81%78.24%15.88%12.95%
28 184 Kelly, Steven 43 M-40-44 2:43:53.2 +35:50.8+28.00%78.13%15.75%12.82%
29 221 LeMire, David 44 M-40-44 2:44:04.0 +36:01.6+28.14%78.04%15.66%12.72%
30 265 Carrey, Chris 36 M-35-39 2:44:36.0 +36:33.6+28.55%77.79%15.39%12.44%
31 276 Golding, Kirk 43 M-40-44 2:45:00.9 +36:58.5+28.88%77.59%15.17%12.22%
32 271 Howat, Robert 40 M-40-44 2:45:45.7 +37:43.3+29.46%77.24%14.79%11.82%
33 322 Funk, Brayden 16 M-Junior 2:45:58.8 +37:56.4+29.63%77.14%14.68%11.70%
34 289 Bang, Jordan 31 M-30-34 2:51:22.9 +43:20.5+33.85%74.71%11.90%8.83%
35 149 Colebatch, Erin 32 F-30-34 2:51:28.0 +43:25.6+33.92%74.67%11.86%8.78%
36 315 Kenward, Toby 27 M-25-29 2:53:33.2 +45:30.8+35.55%73.78%10.79%7.67%
37 256 Gohl, Matthew 43 M-40-44 2:55:28.0 +47:25.6+37.04%72.97%9.80%6.66%
38 39 Miller, Jonathan 50 M-50-54 2:55:30.0 +47:27.6+37.07%72.96%9.78%6.64%
39 156 Mitchell, Jamie 41 M-40-44 3:00:34.5 +52:32.1+41.03%70.91%7.18%3.94%
40 274 Benny, Angela 41 F-40-44 3:01:28.4 +53:26.0+41.73%70.56%6.71%3.46%
41 259 Pascoe, Karina 33 F-30-34 3:01:59.2 +53:56.8+42.13%70.36%6.45%3.19%
42 143 Temple, Niall 42 M-40-44 3:04:03.4 +56:01.0+43.75%69.57%5.39%2.09%
43 164 Munzberg, Emma 45 F-45-49 3:04:07.5 +56:05.1+43.80%69.54%5.35%2.05%
44 93 Dueholm, Bjorn 31 M-30-34 3:04:26.3 +56:23.9+44.05%69.42%5.19%1.88%
45 316 Martin, Andrew 28 M-25-29 3:04:44.2 +56:41.8+44.28%69.31%5.04%1.72%
46 293 Dixon, Geraldine 46 F-45-49 3:05:03.9 +57:01.5+44.54%69.19%4.87%1.55%
47 301 Fuller, James 33 M-30-34 3:05:05.3 +57:02.9+44.56%69.18%4.86%1.54%
48 311 Lutze, Gavin 53 M-50-54 3:05:58.2 +57:55.8+45.24%68.85%4.40%1.07%
49 312 Wadewitz, Adam 38 M-35-39 3:06:17.2 +58:14.8+45.49%68.73%4.24%0.90%
50 263 Hayes, Amanda 44 F-40-44 3:06:30.0 +58:27.6+45.66%68.65%4.13%0.79%
Page / 3
Racers per page: